EHI
0 0 0 0 0 0 0 0 0 0 0 0 0 0 0 0 0 0 0 1 2 5 8 10 11 12 14 12 8 6 7 7 6 4 4 3 1 0 0 0 0 0 0
0 0 0 0 0 0 0 0 0 0 0 0 0 0 0 0 0 0 0 0 2 5 8 10 11 12 14 13 9 7 8 8 7 5 4 3 2 0 0 0 0 0 0
0 0 0 0 0 0 0 0 0 0 0 0 0 0 0 0 0 0 0 0 1 4 6 8 10 12 13 12 9 9 10 10 9 7 5 3 2 0 0 0 0 0 0
0 0 0 0 0 0 0 0 0 0 0 0 1 1 1 0 0 0 0 0 0 2 4 5 7 9 11 10 10 10 12 13 11 9 7 4 3 2 1 0 0 0 0
0 0 0 0 0 0 0 0 0 0 0 0 1 2 1 0 0 0 0 0 0 1 2 2 3 5 7 9 10 10 12 13 13 11 8 6 5 5 4 2 1 1 1
0 0 0 0 0 0 0 0 0 0 0 0 1 1 0 0 0 0 0 0 0 0 0 0 1 2 3 5 8 9 9 10 12 11 10 9 8 7 6 3 2 2 2
0 0 0 0 0 0 0 0 0 0 0 0 0 0 0 0 0 0 0 0 0 0 0 0 0 0 0 1 3 5 5 5 7 8 10 11 10 9 7 5 4 4 4
0 0 0 0 0 0 0 0 0 0 0 0 0 0 0 0 0 0 0 0 0 0 0 0 0 0 0 0 1 2 2 1 3 5 7 8 8 8 7 6 6 6 6
0 0 0 0 0 0 0 0 0 0 0 0 0 0 0 0 0 0 0 0 0 0 0 0 0 0 0 0 0 0 0 0 1 2 3 4 5 5 4 5 7 7 6
0 0 0 0 0 0 0 0 0 0 0 0 0 0 0 0 0 0 0 0 0 0 0 0 0 0 0 0 1 1 0 1 2 2 2 2 1 1 1 2 4 5 4
0 0 0 0 0 0 0 0 0 0 0 0 0 0 0 0 0 0 0 0 0 0 0 0 0 0 0 0 1 1 0 1 2 3 3 1 0 0 0 0 1 1 1
0 0 0 0 0 0 0 0 0 0 0 0 0 0 0 0 0 0 0 0 0 0 0 0 0 0 0 0 1 1 0 0 1 2 3 2 1 0 0 0 0 0 0
0 0 0 0 0 0 0 0 0 0 0 0 0 0 0 0 0 1 1 1 0 0 0 0 0 0 0 0 0 0 0 0 0 1 2 2 1 0 0 0 0 1 1
1 1 1 0 0 0 0 0 0 0 0 0 0 0 0 0 1 2 3 3 1 1 1 0 0 0 0 0 0 0 0 0 0 0 1 1 0 0 0 0 0 0 0
2 1 0 0 0 0 0 0 0 0 0 0 0 0 0 0 1 3 4 5 4 3 2 1 0 0 0 0 0 0 0 0 0 0 0 0 0 0 0 0 0 0 0
2 1 0 0 0 0 0 0 0 0 0 0 0 0 0 0 0 1 2 4 5 5 3 2 0 0 0 0 0 0 0 0 0 0 0 0 0 0 0 0 0 0 0
3 2 1 0 0 0 0 0 0 0 0 0 0 0 0 0 0 0 0 2 4 4 3 1 0 0 0 0 0 0 0 0 0 0 0 0 0 0 0 0 0 0 0
3 3 2 1 0 0 0 0 0 0 0 0 0 0 0 0 0 0 0 1 2 2 1 0 0 0 0 0 0 0 0 0 0 0 0 0 0 0 0 0 0 0 0
3 3 3 1 0 0 0 0 0 0 0 0 0 0 0 0 0 0 0 0 1 0 0 0 0 0 0 0 1 1 1 1 1 0 0 0 0 0 0 0 0 0 0
3 3 3 2 1 0 0 0 0 0 0 0 0 0 0 0 0 0 0 0 0 0 0 1 1 0 0 1 2 2 2 2 2 1 0 0 0 0 0 0 0 0 0
3 3 3 3 1 0 0 0 0 0 0 0 0 0 0 0 0 0 0 0 0 0 0 1 2 1 1 2 3 3 3 3 2 1 0 0 0 0 0 0 0 0 0
3 3 3 3 2 1 0 0 0 0 0 0 0 0 0 0 0 0 0 0 0 0 0 1 2 1 1 1 2 3 3 3 3 1 1 0 0 0 0 0 0 0 0
4 4 3 3 3 2 1 0 0 0 0 0 0 0 0 0 0 0 0 0 0 0 0 0 1 1 0 0 1 1 2 3 3 2 2 1 0 0 0 0 0 0 0
6 5 4 4 4 3 1 0 0 0 0 0 0 0 0 0 0 0 0 0 0 0 0 0 0 0 0 0 0 0 2 3 3 2 2 2 1 0 0 0 0 0 0
6 5 4 3 4 3 1 0 0 0 0 0 0 0 0 0 0 0 0 0 0 0 0 0 0 0 0 0 0 1 2 4 3 2 2 2 1 0 0 0 0 0 0
4 4 4 3 3 2 1 0 0 0 0 0 0 0 0 0 0 0 0 0 0 0 0 0 0 0 0 0 0 1 3 5 5 4 2 2 1 0 0 0 0 0 0
Wind_Speed
0 0 1 0 1 0 0 1 1 1 1 1 0 1 2 2 3 2 2 6 6 7 7 7 7 8 8 7 7 7 6 5 5 5 5 6 7 6 6 6 6 6 8
1 1 1 1 1 1 1 1 1 1 1 1 0 1 1 2 2 3 2 3 6 6 6 7 7 6 7 7 7 7 6 6 5 5 5 5 6 6 6 6 6 6 7
2 1 1 1 1 1 1 0 1 0 1 1 1 0 1 1 2 2 2 2 2 4 5 6 6 6 6 6 6 6 5 5 4 4 5 5 6 6 6 6 6 6 7
2 1 1 1 1 1 1 1 0 0 1 1 1 1 0 0 1 2 2 2 2 2 3 5 6 6 6 6 6 6 6 5 5 4 5 5 5 5 5 6 7 7 7
2 2 1 1 1 0 0 1 1 1 0 1 1 1 1 0 0 1 1 2 2 2 2 2 4 5 6 6 6 6 6 5 5 5 5 6 6 6 6 6 7 7 7
2 2 1 1 1 1 0 0 0 1 1 0 1 2 1 1 0 1 1 1 1 2 2 2 2 2 5 5 5 5 5 5 5 5 6 6 6 6 6 6 6 6 7
1 2 1 1 1 1 1 1 1 1 1 1 2 2 2 1 1 0 0 1 1 1 1 1 1 2 2 3 4 5 5 5 5 5 6 6 6 6 6 6 7 7 7
1 1 2 1 1 1 1 1 1 1 0 1 1 1 2 2 2 1 0 0 0 1 1 1 1 2 2 1 2 4 4 5 6 6 6 5 5 6 6 6 6 7 7
0 0 1 1 1 1 1 1 1 2 1 0 1 2 2 1 1 2 1 0 0 0 1 1 1 2 2 2 2 3 3 4 4 6 6 5 4 5 6 6 7 6 6
0 0 1 1 1 1 1 1 1 1 2 1 1 0 1 2 1 1 1 1 1 1 1 1 1 1 2 2 2 3 3 3 4 4 5 5 5 5 5 6 7 7 7
1 0 1 1 1 1 1 1 1 1 1 2 2 1 1 1 1 1 2 2 1 1 1 1 1 1 1 2 2 2 2 2 2 3 3 4 4 4 5 6 6 7 7
1 1 0 1 1 1 1 1 2 2 2 2 1 2 2 2 2 2 2 2 2 2 1 1 1 1 1 1 2 2 2 2 2 3 3 3 3 4 4 5 6 6 7
1 1 1 1 1 1 1 1 1 1 2 2 2 2 2 2 2 2 2 1 1 1 1 1 1 1 1 1 2 2 2 2 2 3 3 3 3 4 5 5 5 5 6
2 1 1 1 1 1 1 1 1 1 1 2 2 2 1 2 2 3 3 2 1 1 1 2 1 1 2 1 2 2 2 2 3 3 3 3 3 4 5 5 5 4 4
1 1 1 1 1 1 1 1 1 1 1 1 1 1 1 1 1 2 2 3 3 2 2 2 1 1 2 2 2 2 2 2 3 3 3 3 4 4 5 5 5 5 5
1 1 1 1 1 1 1 1 1 1 1 1 1 0 0 0 0 1 1 2 2 2 2 1 2 2 2 2 1 1 2 2 3 3 3 3 3 4 5 5 6 6 6
1 1 2 1 1 1 1 1 1 1 1 0 0 0 1 0 0 0 0 1 2 2 2 2 1 1 1 2 2 1 2 2 2 4 4 4 4 4 5 5 5 6 6
1 1 1 1 1 1 1 2 2 1 1 1 0 0 1 0 0 0 1 1 2 2 2 2 1 1 1 2 2 2 1 1 2 3 4 4 5 4 5 6 5 5 6
1 0 0 1 1 1 1 1 1 1 1 1 1 1 1 1 0 1 1 1 1 1 2 2 2 1 1 1 1 2 2 2 2 2 3 4 4 4 5 5 6 5 5
1 0 1 1 1 1 1 1 1 1 1 1 1 1 1 2 2 2 2 2 1 1 1 1 1 1 1 1 0 1 2 2 2 2 2 2 3 4 4 5 5 5 6
1 1 1 0 1 1 1 1 1 1 1 1 1 1 1 2 3 2 2 2 2 1 1 1 1 1 1 1 1 1 2 2 3 2 1 2 2 2 3 4 5 5 5
1 1 1 0 0 1 1 1 2 1 1 1 1 2 2 2 2 2 2 2 3 3 2 2 2 2 3 3 2 2 1 1 2 1 2 3 2 3 3 3 4 5 5
1 1 0 0 0 1 1 0 1 1 1 1 1 2 2 1 1 1 2 1 1 2 3 3 3 4 3 3 2 2 2 2 3 2 2 3 2 4 3 3 5 6 6
1 1 1 0 0 1 1 0 1 1 0 1 1 2 2 2 2 1 1 1 1 2 2 3 3 4 4 3 3 3 3 3 3 2 2 3 2 3 3 3 5 6 6
1 1 1 1 0 1 1 0 2 1 0 1 2 1 1 1 2 0 1 1 2 3 3 2 3 4 4 3 2 2 2 2 3 2 2 2 2 2 3 3 3 5 5
1 1 1 1 0 1 1 1 2 1 0 1 1 1 1 1 1 1 1 1 2 3 3 2 2 3 3 3 2 3 3 3 2 2 1 2 2 1 2 2 2 2 2
Wind_Direction
202 271 287 324 313 326 325 325 341 337 335 330 230 187 191 196 197 194 199 205 207 214 219 222 220 221 217 212 210 210 210 212 217 216 221 220 213 205 204 201 198 194 189
189 213 261 274 260 235 219 255 294 308 311 314 299 226 212 198 192 192 197 207 214 221 227 227 226 223 218 215 214 214 215 214 219 219 221 213 202 202 204 202 194 187 186
191 196 222 257 256 231 213 232 297 346 328 333 338 288 205 193 183 192 199 203 217 226 230 232 229 226 225 221 218 215 212 209 212 215 214 204 201 202 202 201 198 192 189
201 192 213 257 260 223 194 187 215 39 353 5 2 353 17 144 178 184 197 202 208 225 236 236 232 229 229 225 225 220 216 207 208 213 209 203 199 198 198 199 200 193 189
208 191 212 257 242 183 179 226 126 140 67 359 350 17 22 60 203 178 184 205 202 208 221 237 237 236 235 233 229 226 221 213 211 214 210 206 205 201 199 202 194 189 191
203 180 192 240 208 143 112 134 117 103 122 69 34 34 23 35 86 154 202 208 209 215 218 231 241 245 240 237 234 228 227 224 216 214 213 211 210 204 202 193 185 186 187
188 170 180 187 162 162 197 177 135 94 65 78 74 30 17 41 74 134 198 205 226 231 221 228 242 244 245 242 236 230 230 229 221 218 218 214 211 204 202 195 185 185 188
198 184 173 174 160 142 119 122 135 111 57 77 105 81 9 357 6 17 24 180 257 272 263 254 245 240 236 239 239 234 236 234 222 217 220 217 212 204 199 196 189 190 193
86 179 164 155 169 168 190 207 167 160 169 83 109 137 140 237 319 340 359 22 322 283 289 287 263 255 240 241 249 246 242 238 224 217 210 203 199 197 193 197 197 199 201
345 219 168 161 167 164 189 221 165 174 161 184 167 141 157 162 165 316 329 331 318 302 289 294 295 289 268 253 252 247 239 235 228 221 210 203 198 199 202 205 204 208 208
328 296 182 165 171 183 198 200 168 172 172 180 178 164 148 118 150 177 273 310 325 295 277 267 267 278 280 265 254 253 247 249 244 225 210 201 199 204 210 215 214 214 212
331 334 165 178 197 202 210 205 203 190 191 185 184 174 169 170 184 182 217 259 283 285 279 263 247 243 257 271 261 251 235 236 241 229 215 209 205 210 211 217 220 220 217
307 302 285 215 222 225 219 201 186 205 202 194 201 200 194 202 183 174 182 219 257 287 287 262 242 234 246 265 270 260 246 236 231 226 217 216 217 218 213 213 219 221 220
243 262 246 228 221 216 217 184 181 220 200 207 218 204 200 218 198 192 186 180 223 283 284 273 272 244 254 251 265 252 255 238 221 220 220 222 228 223 211 209 215 219 217
243 245 245 238 235 208 193 174 200 239 194 215 220 207 214 233 211 212 203 194 186 229 272 268 269 276 258 244 252 234 239 240 222 215 221 225 229 221 210 211 214 216 220
239 226 253 241 231 226 207 183 215 227 186 240 216 195 230 241 248 212 203 198 186 196 239 257 254 282 281 280 262 242 242 243 228 219 219 221 223 226 214 213 215 219 223
229 223 228 224 229 232 219 195 213 201 184 246 300 180 274 228 206 242 196 189 194 189 224 271 265 282 273 293 314 292 250 239 245 233 227 225 225 225 224 219 220 224 228
234 229 220 213 231 225 210 194 205 183 184 214 270 319 294 270 44 242 211 221 217 200 201 247 277 280 276 287 303 302 306 278 257 246 229 228 231 230 237 226 224 226 230
223 216 152 211 234 224 213 203 199 203 215 226 225 205 219 164 213 237 231 240 240 218 200 209 256 266 274 291 329 320 320 308 283 266 234 232 241 239 240 235 228 227 232
176 186 194 233 240 224 210 194 187 192 234 250 238 225 220 207 222 233 233 230 224 205 187 206 254 275 272 284 282 300 311 302 288 297 284 248 251 249 246 246 240 236 234
173 181 165 232 257 222 225 187 178 186 211 254 279 270 253 244 242 229 230 216 201 201 210 222 245 256 259 247 246 247 269 289 274 273 282 269 255 253 251 249 247 241 235
150 131 153 209 255 272 319 184 174 189 209 233 270 287 281 271 270 258 253 219 190 195 210 220 232 239 248 243 238 235 248 279 279 263 260 275 253 258 255 247 250 242 233
137 131 153 152 266 317 353 222 178 166 204 245 260 278 292 303 288 268 279 277 250 231 203 204 229 244 245 241 232 237 232 236 251 263 238 264 254 260 258 251 243 243 238
159 159 168 181 186 338 12 58 144 139 165 262 263 261 265 297 289 241 237 300 290 272 238 219 234 250 253 246 226 232 235 247 264 258 210 254 262 265 274 260 247 240 237
155 140 153 133 93 320 343 62 110 110 60 327 305 288 268 271 309 185 165 254 297 297 272 245 240 258 267 259 224 202 213 232 268 261 207 244 266 277 277 268 259 242 237
145 116 88 83 140 309 331 75 121 128 106 323 325 324 331 313 350 137 186 217 265 284 303 317 307 304 292 283 242 214 219 227 249 260 220 234 260 277 286 272 283 277 252